Stündliche Wetter Caucasia

Heute, 31 Oktober, Samstag

Zeit Temperatur Niederschläge Wind Luftdruck Luftfeuchtigkeit
00:00 +25°C° 0.6 mm 1 m/S 754 mmHg 96%
01:00 +23°C° 0.6 mm 0 m/S 754 mmHg 97%
02:00 +23°C° 0 mm 0 m/S 754 mmHg 97%
03:00 +23°C° 0 mm 0 m/S 754 mmHg 97%
04:00 +23°C° 0 mm 0 m/S 754 mmHg 97%
05:00 +23°C° 0 mm 0 m/S 754 mmHg 97%
06:00 +25°C° 0 mm 1 m/S 755 mmHg 97%
07:00 +25°C° 0 mm 1 m/S 755 mmHg 97%
08:00 +27°C° 0.1 mm 1 m/S 755 mmHg 91%
09:00 +28°C° 0.1 mm 1 m/S 755 mmHg 86%
10:00 +29°C° 0.1 mm 1 m/S 755 mmHg 80%
11:00 +31°C° 0.1 mm 1 m/S 754 mmHg 75%
12:00 +32°C° 0.1 mm 1 m/S 754 mmHg 69%
13:00 +33°C° 0.1 mm 1 m/S 753 mmHg 64%
14:00 +32°C° 1.2 mm 1 m/S 752 mmHg 70%
15:00 +32°C° 1.2 mm 1 m/S 752 mmHg 76%
16:00 +31°C° 1.2 mm 2 m/S 752 mmHg 82%
17:00 +29°C° 2.8 mm 2 m/S 752 mmHg 85%
18:00 +28°C° 2.8 mm 2 m/S 753 mmHg 89%
19:00 +27°C° 2.8 mm 2 m/S 753 mmHg 93%
20:00 +26°C° 1.5 mm 2 m/S 754 mmHg 94%
21:00 +26°C° 1.5 mm 1 m/S 754 mmHg 95%
22:00 +26°C° 1.5 mm 1 m/S 754 mmHg 96%
23:00 +26°C° 0.6 mm 1 m/S 754 mmHg 97%

Morgen, 1 November, Sonntag

Zeit Temperatur Niederschläge Wind Luftdruck Luftfeuchtigkeit
00:00 +25°C° 0.6 mm 1 m/S 754 mmHg 98%
01:00 +25°C° 0.6 mm 1 m/S 754 mmHg 98%
02:00 +25°C° 0.1 mm 1 m/S 753 mmHg 98%
03:00 +25°C° 0.1 mm 1 m/S 753 mmHg 98%
04:00 +25°C° 0.1 mm 1 m/S 753 mmHg 98%
05:00 +25°C° 0 mm 1 m/S 753 mmHg 97%
06:00 +25°C° 0 mm 1 m/S 754 mmHg 97%
07:00 +26°C° 0 mm 1 m/S 755 mmHg 96%
08:00 +27°C° 0.3 mm 1 m/S 755 mmHg 92%
09:00 +28°C° 0.3 mm 1 m/S 755 mmHg 88%
10:00 +29°C° 0.3 mm 2 m/S 755 mmHg 84%
11:00 +30°C° 0.4 mm 1 m/S 754 mmHg 79%
12:00 +31°C° 0.4 mm 1 m/S 753 mmHg 73%
13:00 +32°C° 0.4 mm 1 m/S 752 mmHg 68%
14:00 +32°C° 0.4 mm 1 m/S 752 mmHg 69%
15:00 +32°C° 0.4 mm 1 m/S 751 mmHg 70%
16:00 +32°C° 0.4 mm 1 m/S 751 mmHg 71%
17:00 +30°C° 1.3 mm 1 m/S 751 mmHg 78%
18:00 +28°C° 1.3 mm 1 m/S 752 mmHg 85%
19:00 +27°C° 1.3 mm 2 m/S 753 mmHg 91%
20:00 +26°C° 0.8 mm 1 m/S 753 mmHg 92%
21:00 +26°C° 0.8 mm 1 m/S 753 mmHg 94%
22:00 +26°C° 0.8 mm 1 m/S 754 mmHg 95%
23:00 +26°C° 1.1 mm 1 m/S 754 mmHg 95%

übermorgen, 2 November, Montag

Zeit Temperatur Niederschläge Wind Luftdruck Luftfeuchtigkeit
00:00 +26°C° 1.1 mm 1 m/S 753 mmHg 96%
01:00 +25°C° 1.1 mm 1 m/S 753 mmHg 97%
02:00 +25°C° 0.3 mm 1 m/S 753 mmHg 97%
03:00 +25°C° 0.3 mm 1 m/S 753 mmHg 97%
04:00 +25°C° 0.3 mm 1 m/S 753 mmHg 96%
05:00 +25°C° 0.1 mm 1 m/S 753 mmHg 96%
06:00 +25°C° 0.1 mm 1 m/S 754 mmHg 96%
07:00 +26°C° 0.1 mm 1 m/S 754 mmHg 95%
08:00 +27°C° 0.1 mm 1 m/S 754 mmHg 88%
09:00 +29°C° 0.1 mm 1 m/S 754 mmHg 80%
10:00 +31°C° 0.1 mm 1 m/S 754 mmHg 72%
11:00 +31°C° 0.7 mm 1 m/S 753 mmHg 72%
12:00 +32°C° 0.7 mm 1 m/S 752 mmHg 71%
13:00 +32°C° 0.7 mm 1 m/S 752 mmHg 71%
14:00 +31°C° 1.6 mm 1 m/S 751 mmHg 77%
15:00 +30°C° 1.6 mm 2 m/S 751 mmHg 84%
16:00 +29°C° 1.6 mm 2 m/S 751 mmHg 90%
17:00 +28°C° 0.5 mm 2 m/S 751 mmHg 91%
18:00 +27°C° 0.5 mm 1 m/S 752 mmHg 92%
19:00 +26°C° 0.5 mm 1 m/S 752 mmHg 93%
20:00 +26°C° 0.2 mm 1 m/S 753 mmHg 93%
21:00 +26°C° 0.2 mm 1 m/S 753 mmHg 94%
22:00 +26°C° 0.2 mm 1 m/S 754 mmHg 95%
23:00 +26°C° 0.3 mm 1 m/S 753 mmHg 96%

3 November, Dienstag

Zeit Temperatur Niederschläge Wind Luftdruck Luftfeuchtigkeit
00:00 +26°C° 0.3 mm 1 m/S 753 mmHg 96%
01:00 +25°C° 0.3 mm 1 m/S 753 mmHg 97%
02:00 +25°C° 0.2 mm 1 m/S 753 mmHg 97%
03:00 +25°C° 0.2 mm 1 m/S 753 mmHg 97%
04:00 +25°C° 0.2 mm 1 m/S 753 mmHg 98%
05:00 +25°C° 0.2 mm 1 m/S 753 mmHg 97%
06:00 +23°C° 0.2 mm 0 m/S 754 mmHg 97%
07:00 +24°C° 0.2 mm 0 m/S 754 mmHg 96%
08:00 +27°C° 0.7 mm 1 m/S 754 mmHg 89%
09:00 +29°C° 0.7 mm 1 m/S 754 mmHg 83%
10:00 +30°C° 0.7 mm 1 m/S 754 mmHg 76%
11:00 +31°C° 0.7 mm 1 m/S 753 mmHg 73%
12:00 +32°C° 0.7 mm 1 m/S 752 mmHg 69%
13:00 +33°C° 0.7 mm 1 m/S 751 mmHg 66%
14:00 +32°C° 0.9 mm 1 m/S 751 mmHg 71%
15:00 +32°C° 0.9 mm 1 m/S 750 mmHg 76%
16:00 +31°C° 0.9 mm 2 m/S 750 mmHg 81%
17:00 +30°C° 1.6 mm 2 m/S 751 mmHg 84%
18:00 +28°C° 1.6 mm 1 m/S 751 mmHg 88%
19:00 +27°C° 1.6 mm 1 m/S 752 mmHg 91%
20:00 +27°C° 1.2 mm 1 m/S 753 mmHg 92%
21:00 +27°C° 1.2 mm 1 m/S 753 mmHg 93%
22:00 +26°C° 1.2 mm 1 m/S 754 mmHg 94%
23:00 +26°C° 1 mm 1 m/S 754 mmHg 95%

4 November, Mittwoch

Zeit Temperatur Niederschläge Wind Luftdruck Luftfeuchtigkeit
00:00 +26°C° 1 mm 1 m/S 753 mmHg 96%
01:00 +26°C° 1 mm 1 m/S 753 mmHg 97%
02:00 +25°C° 0.5 mm 1 m/S 753 mmHg 98%
03:00 +25°C° 0.5 mm 1 m/S 753 mmHg 98%
04:00 +25°C° 0.5 mm 1 m/S 753 mmHg 98%
05:00 +25°C° 0 mm 1 m/S 753 mmHg 97%
06:00 +25°C° 0 mm 1 m/S 754 mmHg 97%
07:00 +26°C° 0 mm 1 m/S 754 mmHg 96%
08:00 +27°C° 0.1 mm 1 m/S 754 mmHg 90%
09:00 +28°C° 0.1 mm 1 m/S 754 mmHg 84%
10:00 +30°C° 0.1 mm 1 m/S 754 mmHg 78%
11:00 +31°C° 0.2 mm 1 m/S 753 mmHg 73%
12:00 +32°C° 0.2 mm 1 m/S 753 mmHg 68%
13:00 +33°C° 0.2 mm 1 m/S 752 mmHg 63%
14:00 +32°C° 0 mm 1 m/S 751 mmHg 66%
15:00 +32°C° 0 mm 1 m/S 751 mmHg 70%
16:00 +32°C° 0 mm 1 m/S 751 mmHg 73%
17:00 +30°C° 0.3 mm 1 m/S 751 mmHg 78%
18:00 +29°C° 0.3 mm 1 m/S 752 mmHg 83%
19:00 +28°C° 0.3 mm 1 m/S 752 mmHg 88%
20:00 +27°C° 1.6 mm 1 m/S 753 mmHg 90%
21:00 +26°C° 1.6 mm 1 m/S 753 mmHg 93%
22:00 +26°C° 1.6 mm 1 m/S 754 mmHg 95%
23:00 +26°C° 1.4 mm 1 m/S 753 mmHg 95%

5 November, Donnerstag

Zeit Temperatur Niederschläge Wind Luftdruck Luftfeuchtigkeit
00:00 +26°C° 1.4 mm 1 m/S 753 mmHg 95%
01:00 +25°C° 1.4 mm 1 m/S 753 mmHg 95%
02:00 +25°C° 1.3 mm 1 m/S 753 mmHg 95%
03:00 +25°C° 1.3 mm 1 m/S 753 mmHg 96%
04:00 +25°C° 1.3 mm 1 m/S 753 mmHg 96%
05:00 +25°C° 0.7 mm 1 m/S 753 mmHg 96%
06:00 +25°C° 0.7 mm 1 m/S 753 mmHg 96%
07:00 +25°C° 0.7 mm 1 m/S 754 mmHg 96%
08:00 +26°C° 0.2 mm 1 m/S 754 mmHg 92%
09:00 +27°C° 0.2 mm 1 m/S 754 mmHg 89%
10:00 +28°C° 0.2 mm 1 m/S 754 mmHg 85%
11:00 +30°C° 0.4 mm 1 m/S 753 mmHg 78%
12:00 +31°C° 0.4 mm 1 m/S 752 mmHg 70%
13:00 +33°C° 0.4 mm 1 m/S 751 mmHg 63%
14:00 +32°C° 0.4 mm 1 m/S 751 mmHg 68%
15:00 +32°C° 0.4 mm 1 m/S 750 mmHg 72%
16:00 +31°C° 0.4 mm 1 m/S 750 mmHg 77%
17:00 +29°C° 1.7 mm 1 m/S 751 mmHg 82%
18:00 +28°C° 1.7 mm 1 m/S 751 mmHg 87%
19:00 +26°C° 1.7 mm 1 m/S 752 mmHg 92%
20:00 +26°C° 0.8 mm 1 m/S 752 mmHg 93%
21:00 +26°C° 0.8 mm 1 m/S 752 mmHg 93%
22:00 +26°C° 0.8 mm 1 m/S 753 mmHg 94%
23:00 +25°C° 0.1 mm 1 m/S 753 mmHg 95%
Mehr zeigen